[[{"header":{"parameterUnit":"m.s-1","parameterCategory":1,"la1":30.2991,"la2":30.254,"lo1":-89.0895,"lo2":-89.0444,"dy":0.0017,"dx":0.0017,"nx":28,"ny":28,"refTime":"2025-07-20T21:00:00:Z","depth":0,"parameterNumber":2,"parameterNumberName":"U-component_of_WINDS"},"data":[0,0,0,0,0,0,0,0,0,0,0,0,0,0,0,0,0,0,0,0,0,0,0,0,0,0,0,0,0,0,0,0,0,0,0,0,0,0,0,0,0,0,0,0,0,0,0,0,0,0,0,0,0,0,0,0,0,0,2.9432,2.9433,0,2.953,2.9531,2.9532,2.9533,2.9532,2.953,2.9529,2.9633,2.9637,2.9641,0,0,0,0,0,0,0,0,0,0,0,0,0,2.925,2.9254,2.9432,2.9433,2.9434,2.953,2.9531,2.9533,2.9533,2.9532,2.953,2.9529,2.9632,2.9637,2.9642,0,0,0,0,0,0,0,0,0,0,0,0,0,2.9337,2.9255,2.9432,2.9446,2.9448,2.953,2.9531,2.9533,2.9533,2.9531,2.953,2.9528,2.9631,2.9636,2.9642,2.9717,0,0,2.966,2.9663,0,0,0,0,0,0,0,0,2.9332,2.9344,2.9443,2.9445,2.9448,2.9517,2.9505,2.9595,2.9534,2.9501,2.9529,2.9527,2.9597,2.9605,2.9628,2.9722,2.9726,2.9661,2.9664,2.9667,2.9669,0,0,0,0,0,0,0,2.9326,2.9339,2.9471,2.9444,2.9447,2.9449,2.9459,2.9522,2.9559,2.9504,2.9504,2.9516,2.9598,2.9622,2.963,2.9728,2.9661,2.9666,2.967,2.9672,2.9891,2.9893,0,0,0,0,0,0,2.9316,2.9334,2.9468,2.9474,2.9384,2.9454,2.9465,2.9497,2.9558,2.9565,2.9517,2.9515,2.9613,2.9623,2.9634,2.9728,2.9667,2.9672,2.9676,2.9889,2.9892,2.9894,0,0,0,0,0,0,2.9313,2.9328,2.9464,2.9404,2.9422,2.9459,2.9495,2.95,2.9524,2.9568,2.9575,2.9535,2.9612,2.9626,2.9697,2.9731,2.9675,2.9681,2.9886,2.989,2.9893,2.9914,0,0,0,0,0,0,2.9307,2.9327,2.9354,2.9405,2.9425,2.9523,2.9497,2.9503,2.9534,2.9533,2.9586,2.9594,2.9611,2.9688,2.9703,2.9738,2.9685,2.9883,2.9888,2.9892,2.991,2.9917,2.9924,0,0,0,0,0,2.9301,2.9357,2.9356,2.9372,2.946,2.9525,2.9537,2.9555,2.9537,2.9566,2.9594,2.9592,2.9725,2.9695,2.9712,2.975,2.9881,2.9886,2.9891,2.9907,2.9916,2.9924,0,0,0,0,0,0,2.931,2.9363,2.9363,2.9436,2.9476,2.9525,2.9562,2.9563,2.961,2.9607,2.9629,2.9641,2.9712,2.9738,2.9704,2.9827,2.9801,2.981,2.9807,2.9816,2.9823,2.9816,2.969,0,0,0,0,0,2.932,2.9368,2.9412,2.9473,2.9493,2.9524,2.9553,2.9564,2.9607,2.9624,2.9657,2.97,2.9752,2.9785,2.9835,2.9914,2.9927,2.9948,2.9955,2.996,2.9968,3.0014,3.0025,2.9911,2.9911,2.9911,0,0,2.9343,2.9378,2.9406,2.9476,2.9508,2.9559,2.9538,2.9592,2.963,2.9632,2.9702,2.9728,2.9777,2.9853,2.9888,2.9877,3.0003,2.9967,2.9971,2.9976,3.0021,3.0032,3.0041,2.9914,2.9914,2.9913,0,0,2.941,2.944,2.9495,2.9527,2.9576,2.9597,2.961,2.9659,2.9676,2.9746,2.9749,2.9796,2.9884,2.9919,2.9949,3.0032,3.0032,3.0047,3.0083,3.0128,3.0137,3.0145,3.0177,3.0188,3.0054,3.0054,3.0055,0,2.9432,2.9506,2.9523,2.9578,2.9609,2.9612,2.967,2.9701,2.9764,2.9786,2.9772,2.9884,2.9917,3.0003,3.0023,3.0046,3.0064,3.0042,3.0134,3.0142,3.015,3.0181,3.0192,3.0056,3.0056,3.0056,3.0056,0,2.9532,2.9584,2.9623,2.9683,2.9719,2.9774,2.9802,2.9836,2.9844,2.9867,2.9939,2.9979,3.0038,3.0059,3.0068,3.0147,3.0139,3.0129,3.0104,3.0163,3.0192,3.0203,3.0058,3.0058,3.0057,3.0057,0,0,2.9608,2.9677,2.9691,2.972,2.9774,2.9816,2.9872,2.9929,2.996,3.0003,3.0053,3.0128,3.012,3.0153,3.0166,3.0205,3.0271,3.0191,3.0193,3.0206,3.0364,3.0372,3.0385,3.0271,3.0274,3.0275,3.0361,0,2.9682,2.9781,2.9799,2.9887,2.9937,2.9941,2.9991,3.0031,3.0054,3.0101,3.0127,3.0181,3.0165,3.0186,3.0225,3.0255,3.0303,3.0249,3.032,3.0323,3.0309,3.04,3.0409,3.0487,3.0372,3.0374,3.0375,0,2.9782,2.9828,2.992,2.997,2.9992,3.0036,3.0091,3.0135,3.0181,3.0196,3.0234,3.0242,3.0304,3.0275,3.0362,3.0324,3.0355,3.0374,3.0378,3.0386,3.0354,3.0414,3.0513,3.0525,3.0393,3.0392,3.039,0,2.9831,2.9915,2.9982,3.0006,3.0065,3.0097,3.0123,3.0168,3.0201,3.025,3.0272,3.0327,3.0358,3.0401,3.0426,3.0402,3.0511,3.0484,3.0527,3.0527,3.0551,3.0549,3.0658,3.0568,3.0567,3.0567,3.0567,0,2.9913,2.997,3.0005,3.0047,3.0111,3.0132,3.0196,3.0222,3.0262,3.031,3.0317,3.0363,3.0391,3.0441,3.0461,3.0531,3.0544,3.0559,3.0564,3.056,3.0558,3.0581,3.0577,3.057,3.057,3.0569,3.0568,0,2.9978,3.0004,3.0078,3.0128,3.0142,3.0188,3.0232,3.0273,3.0296,3.0357,3.0373,3.041,3.047,3.0498,3.0572,3.0585,3.0665,3.0666,3.065,3.0652,3.0694,3.0691,3.0823,3.0843,3.0737,3.0738,3.0739,0,3.003,3.0074,3.0129,3.0161,3.0188,3.024,3.0274,3.0297,3.0333,3.039,3.0426,3.0485,3.0534,3.063,3.0665,3.0722,3.0725,3.0767,3.0734,3.0728,3.0728,3.0726,3.0732,3.0774,3.0775,3.0776,3.0776,0,3.012,3.0131,3.0179,3.0233,3.0274,3.0318,3.0361,3.0387,3.0417,3.0457,3.0518,3.0556,3.0631,3.0692,3.0751,3.0781,3.0785,3.0787,3.08,3.0797,3.0787,3.0795,3.0668,3.0784,3.0783,3.0782,3.0782,3.0782,3.0182,3.0222,3.0267,3.0322,3.0356,3.0397,3.0439,3.0467,3.0518,3.058,3.0591,3.0656,3.0704,3.0785,3.0816,3.0869,3.0859,3.0878,3.0883,3.0888,3.0892,3.0777,3.088,3.088,3.0879,3.0879,3.0879,0,3.0274,3.0303,3.0353,3.0413,3.0457,3.0455,3.0503,3.054,3.0597,3.064,3.0688,3.0759,3.0818,3.0858,3.0918,3.0953,3.0956,3.0968,3.0967,3.0974,3.0896,3.0879,3.0964,3.0964,3.0964,3.0964,3.0964,3.0964,3.0327,3.0395,3.0412,3.0499,3.0528,3.0591,3.0619,3.0657,3.0692,3.0771,3.0819,3.0844,3.0887,3.0951,3.1005,3.1016,3.1039,3.1051,3.1062,3.0988,3.0979,3.0971,3.0955,3.1055,3.1055,3.1136,3.1136,3.1137]},{"header":{"parameterUnit":"m.s-1","parameterCategory":1,"la1":30.2991,"la2":30.254,"lo1":-89.0895,"lo2":-89.0444,"dy":0.0017,"dx":0.0017,"nx":28,"ny":28,"refTime":"2025-07-20T21:00:00:Z","depth":0,"parameterNumber":3,"parameterNumberName":"V-component_of_WINDS"},"data":[0,0,0,0,0,0,0,0,0,0,0,0,0,0,0,0,0,0,0,0,0,0,0,0,0,0,0,0,0,0,0,0,0,0,0,0,0,0,0,0,0,0,0,0,0,0,0,0,0,0,0,0,0,0,0,0,0,0,-1.1021,-1.1021,0,-1.1053,-1.1054,-1.1054,-1.1083,-1.1083,-1.1084,-1.1084,-1.1116,-1.1117,-1.1118,0,0,0,0,0,0,0,0,0,0,0,0,0,-1.0985,-1.0986,-1.1021,-1.1022,-1.1022,-1.1053,-1.1054,-1.1054,-1.1083,-1.1083,-1.1084,-1.1084,-1.1116,-1.1117,-1.1118,0,0,0,0,0,0,0,0,0,0,0,0,0,-1.1007,-1.0986,-1.1021,-1.104,-1.1042,-1.1053,-1.1054,-1.1054,-1.1083,-1.1083,-1.1084,-1.1084,-1.1116,-1.1117,-1.1118,-1.1112,0,0,-1.112,-1.112,0,0,0,0,0,0,0,0,-1.1006,-1.1009,-1.1037,-1.1039,-1.1041,-1.1065,-1.1053,-1.1074,-1.1083,-1.1067,-1.1084,-1.1085,-1.1099,-1.1101,-1.1106,-1.1114,-1.1115,-1.112,-1.1121,-1.1121,-1.1121,0,0,0,0,0,0,0,-1.1004,-1.1007,-1.1034,-1.1037,-1.104,-1.1047,-1.1051,-1.1057,-1.108,-1.1069,-1.1071,-1.1074,-1.11,-1.1105,-1.1107,-1.1116,-1.112,-1.1121,-1.1121,-1.1122,-1.1122,-1.1122,0,0,0,0,0,0,-1.1,-1.1006,-1.1033,-1.1035,-1.1025,-1.1047,-1.1052,-1.1057,-1.108,-1.1084,-1.1074,-1.1076,-1.1103,-1.1106,-1.1108,-1.1104,-1.1121,-1.1122,-1.1122,-1.1122,-1.1122,-1.1121,0,0,0,0,0,0,-1.0999,-1.1002,-1.1032,-1.1021,-1.1025,-1.1047,-1.1053,-1.1057,-1.1062,-1.1084,-1.1088,-1.1075,-1.1104,-1.1107,-1.1111,-1.1106,-1.1122,-1.1123,-1.1123,-1.1122,-1.1122,-1.1096,0,0,0,0,0,0,-1.0998,-1.1002,-1.1,-1.1021,-1.1026,-1.1034,-1.1053,-1.1057,-1.1063,-1.1066,-1.1086,-1.1089,-1.1105,-1.111,-1.1112,-1.1107,-1.1124,-1.1124,-1.1123,-1.1122,-1.1097,-1.1094,-1.1092,0,0,0,0,0,-1.0997,-1.0991,-1.0999,-1.1002,-1.1024,-1.1034,-1.1036,-1.1054,-1.1063,-1.1061,-1.1075,-1.1089,-1.1106,-1.111,-1.1113,-1.1108,-1.1124,-1.1123,-1.1122,-1.1098,-1.1095,-1.1092,0,0,0,0,0,0,-1.0968,-1.0994,-1.1004,-1.1004,-1.1017,-1.1038,-1.1037,-1.105,-1.1059,-1.1061,-1.1083,-1.1087,-1.1089,-1.1099,-1.1103,-1.1105,-1.1117,-1.1116,-1.1098,-1.1095,-1.1092,-1.109,-1.1124,0,0,0,0,0,-1.0961,-1.0967,-1.099,-1.0988,-1.0994,-1.1014,-1.1019,-1.1032,-1.1045,-1.1051,-1.1065,-1.1077,-1.1086,-1.1091,-1.11,-1.1099,-1.1104,-1.1097,-1.1094,-1.1092,-1.1091,-1.1092,-1.109,-1.1118,-1.1118,-1.1118,0,0,-1.0948,-1.0963,-1.0966,-1.0983,-1.0994,-1.1,-1.1018,-1.1023,-1.1028,-1.1051,-1.1057,-1.1068,-1.1083,-1.1085,-1.1087,-1.1093,-1.1084,-1.109,-1.1088,-1.1089,-1.1091,-1.1088,-1.1086,-1.1117,-1.1117,-1.1117,0,0,-1.0928,-1.094,-1.094,-1.0951,-1.0968,-1.0982,-1.0982,-1.1002,-1.101,-1.1016,-1.1034,-1.104,-1.1053,-1.1064,-1.1071,-1.1056,-1.1069,-1.1058,-1.1044,-1.1045,-1.1043,-1.1041,-1.1036,-1.1034,-1.1058,-1.1058,-1.1058,0,-1.091,-1.0919,-1.0939,-1.0943,-1.0951,-1.0972,-1.0974,-1.0983,-1.1001,-1.1006,-1.1014,-1.1032,-1.1044,-1.1049,-1.1046,-1.105,-1.1052,-1.1056,-1.1042,-1.104,-1.1039,-1.1034,-1.1033,-1.1056,-1.1056,-1.1057,-1.1057,0,-1.0897,-1.0903,-1.0902,-1.092,-1.0927,-1.0929,-1.0949,-1.0954,-1.0967,-1.098,-1.0986,-1.1001,-1.1014,-1.1016,-1.1028,-1.1023,-1.1027,-1.1038,-1.1051,-1.1034,-1.1031,-1.1029,-1.1054,-1.1055,-1.1055,-1.1056,0,0,-1.0858,-1.0888,-1.0887,-1.0896,-1.0917,-1.0922,-1.0926,-1.0939,-1.0943,-1.0955,-1.096,-1.0971,-1.0982,-1.099,-1.1003,-1.1004,-1.0992,-1.1015,-1.1015,-1.1011,-1.0989,-1.0981,-1.0979,-1.1001,-1.1001,-1.1001,-1.0988,0,-1.0842,-1.0851,-1.0869,-1.0872,-1.0878,-1.09,-1.0903,-1.0916,-1.0929,-1.0937,-1.0951,-1.0959,-1.0971,-1.0977,-1.0978,-1.0993,-1.0988,-1.0994,-1.1006,-1.1006,-1.1001,-1.0977,-1.0969,-1.0956,-1.0987,-1.0987,-1.0986,0,-1.0824,-1.0835,-1.0839,-1.086,-1.0864,-1.0867,-1.0881,-1.0887,-1.0903,-1.0912,-1.0922,-1.0937,-1.0943,-1.0954,-1.0963,-1.0967,-1.0973,-1.0981,-1.0981,-1.0983,-1.0995,-1.0979,-1.0953,-1.0951,-1.0984,-1.0985,-1.0985,0,-1.0796,-1.0813,-1.0818,-1.0825,-1.0849,-1.0851,-1.0861,-1.0877,-1.0884,-1.0896,-1.0901,-1.0914,-1.0921,-1.093,-1.0948,-1.0955,-1.0955,-1.0968,-1.0964,-1.0963,-1.0963,-1.0963,-1.0937,-1.0966,-1.0966,-1.0966,-1.0966,0,-1.0776,-1.0778,-1.0806,-1.0809,-1.0812,-1.0833,-1.0835,-1.0847,-1.0861,-1.0867,-1.0886,-1.0892,-1.0915,-1.0923,-1.0937,-1.0943,-1.0946,-1.0954,-1.0958,-1.0952,-1.0951,-1.0957,-1.0958,-1.0965,-1.0965,-1.0966,-1.0966,0,-1.0746,-1.0765,-1.0772,-1.0795,-1.0801,-1.0802,-1.0822,-1.0825,-1.084,-1.0847,-1.085,-1.0872,-1.0883,-1.0902,-1.0917,-1.0927,-1.093,-1.0936,-1.0925,-1.0927,-1.0922,-1.0922,-1.0899,-1.0898,-1.0926,-1.0926,-1.0926,0,-1.0732,-1.0734,-1.0758,-1.0763,-1.0773,-1.0781,-1.0789,-1.081,-1.0817,-1.0836,-1.0837,-1.085,-1.0861,-1.0877,-1.0894,-1.0907,-1.0914,-1.0905,-1.0916,-1.0911,-1.0915,-1.0914,-1.0915,-1.0902,-1.0902,-1.0902,-1.0901,0,-1.0706,-1.0715,-1.0725,-1.0739,-1.0748,-1.0759,-1.0772,-1.0775,-1.0799,-1.0806,-1.0818,-1.0826,-1.0843,-1.0855,-1.087,-1.0881,-1.0896,-1.0898,-1.0898,-1.0892,-1.0886,-1.089,-1.0919,-1.0898,-1.0899,-1.0899,-1.0899,-1.0899,-1.0684,-1.0687,-1.0704,-1.0715,-1.0727,-1.0739,-1.0744,-1.0759,-1.0769,-1.0784,-1.0796,-1.0807,-1.0824,-1.0846,-1.0856,-1.0865,-1.0871,-1.0871,-1.0871,-1.087,-1.0868,-1.0884,-1.0868,-1.0868,-1.0868,-1.0868,-1.0868,0,-1.0659,-1.0671,-1.0681,-1.0699,-1.0708,-1.0721,-1.0736,-1.0742,-1.0751,-1.0766,-1.0777,-1.079,-1.0802,-1.0821,-1.0835,-1.0838,-1.0845,-1.0841,-1.0841,-1.0844,-1.0861,-1.0861,-1.0836,-1.0836,-1.0836,-1.0836,-1.0836,-1.0836,-1.0647,-1.0653,-1.0665,-1.0678,-1.069,-1.0701,-1.0709,-1.072,-1.0732,-1.0746,-1.0756,-1.0769,-1.0785,-1.0801,-1.0813,-1.0818,-1.0822,-1.0816,-1.0824,-1.084,-1.0843,-1.0845,-1.0845,-1.0817,-1.0817,-1.0806,-1.0805,-1.0805]}]]